User: anonymous   Login
Location: Sternwarte Stuttgart
(48.7670°N, 9.1830°E)
Time: 08:01:06
(UTC+01:00)
Language:

Cosmos 2251 Rocket - Orbit

View from above orbital plane
View from above orbital plane
View from above satellite
View from above satellite

Ground track
Ground track

The orbit data is extracted from the following two-line orbital elements,

1 22676U 93036B   19318.62936994  .00000029  00000-0  19610-4 0  9996
2 22676  74.0442  11.5485 0018843 187.1878 172.9007 14.33993378381541
Epoch (UTC): 14 November 2019 15:06:17
Eccentricity: 0.0018843
inclination: 74.0442°
perigee height: 765 km
apogee height: 792 km
right ascension of ascending node: 11.5485°
argument of perigee: 187.1878°
revolutions per day: 14.33993378
mean anomaly at epoch: 172.9007°
orbit number at epoch: 38154

The dashed part of the orbit path shows where the satellite is in the earth's shadow,  

DLR